Location: Guilderland
(42.7045°N, 73.9115°W)
Time: 18:43:59
(UTC+00:00)

FALCON 9 R/B - Pass Details

Date: 24 January 2020
Orbit: 286 x 10157 km, 34.5° (Epoch: 26 February)

Event Time Altitude Azimuth Distance (km) Brightness Sun altitude
Rises 23:23:42 0° 232° (SW) 10,518 9.0 -15.7°
Reaches altitude 10° 23:34:44 10° 227° (SW) 7,477 7.9 -17.7°
Maximum altitude 23:50:44 33° 173° (S) 2,546 4.6 -20.6°
Enters shadow 23:54:23 22° 128° (SE) 2,285 4.0 -21.3°
